GW4864 Weather Reports


Display with metric or nautical units.
time (UTC)temp
F
wind
direction
speed
MPH
gust
MPH
rain 1hr
in
rain 24hr
in
rain mn
in
humidity
%
barometer
mb
20260510064544 51 0 0.0 0.0 0.00 0.00 0.00 92 1011.6
20260510063045 51 0 0.0 0.0 0.00 0.00 0.00 92 1011.6
20260510061548 52 0 0.0 0.0 0.00 0.00 0.00 92 1011.5
20260510060046 52 0 0.0 0.0 0.00 0.00 0.00 92 1011.4
20260510054548 53 0 0.0 0.0 0.00 0.00 0.00 92 1011.6
20260510053043 53 0 0.0 0.0 0.00 0.00 0.00 91 1011.4
20260510051543 53 0 0.0 0.0 0.00 0.00 0.00 91 1011.3
20260510050038 54 12 0.0 1.0 0.00 0.00 0.00 90 1011.4
20260510044546 54 0 0.0 0.0 0.00 0.00 0.00 89 1011.2
20260510043047 54 0 0.0 1.0 0.00 0.00 0.00 88 1011.3
20260510041543 55 0 0.0 1.0 0.00 0.00 0.00 87 1011.3
20260510040042 56 0 0.0 1.0 0.00 0.00 0.00 86 1011.2
20260510034541 56 0 0.0 0.0 0.00 0.00 0.00 85 1011.1
20260510033059 57 0 0.0 0.0 0.00 0.00 0.00 83 1011.0
20260510031549 58 0 0.0 0.0 0.00 0.00 0.00 82 1010.8
20260510030044 59 0 0.0 1.0 0.00 0.00 0.00 80 1010.7
20260510024544 59 0 0.0 0.0 0.00 0.00 0.00 80 1010.7
20260510023044 59 0 0.0 0.0 0.00 0.00 0.00 79 1010.5
20260510021603 58 0 0.0 0.0 0.00 0.00 0.00 80 1010.1
20260510020045 58 0 0.0 0.0 0.00 0.00 0.00 81 1010.0
20260510014543 58 0 0.0 0.0 0.00 0.00 0.00 80 1009.6
20260510013051 59 0 0.0 1.0 0.00 0.00 0.00 79 1009.4
20260510011551 60 0 0.0 0.0 0.00 0.00 0.00 78 1009.4
20260510010043 60 0 0.0 0.0 0.00 0.00 0.00 75 1009.2
20260510004548 61 0 0.0 0.0 0.00 0.00 0.00 74 1008.9
20260510003103 62 0 0.0 0.0 0.00 0.00 0.00 72 1008.9
20260510001545 64 0 0.0 0.0 0.00 0.00 0.00 69 1008.8
20260510000046 65 0 0.0 0.0 0.00 0.00 0.00 66 1008.7
20260509234557 67 0 0.0 1.0 0.00 0.00 0.00 63 1008.6
20260509233042 69 0 0.0 1.0 0.00 0.00 0.00 59 1008.3
20260509231552 71 355 0.0 3.0 0.00 0.00 0.00 58 1008.3
20260509230059 72 336 1.0 4.0 0.00 0.00 0.00 54 1008.3
20260509224543 73 317 0.0 4.0 0.00 0.00 0.00 52 1008.3
20260509223044 74 0 1.0 7.0 0.00 0.00 0.00 49 1008.5
20260509221543 75 317 1.0 6.0 0.00 0.00 0.00 46 1008.5
20260509220043 74 298 1.0 3.0 0.00 0.00 0.00 50 1008.5
20260509214542 73 308 1.0 5.0 0.00 0.00 0.00 50 1008.3
20260509213055 75 319 2.0 9.0 0.00 0.00 0.00 46 1008.3
20260509211543 78 241 1.0 6.0 0.00 0.00 0.00 47 1008.2
20260509210050 77 344 2.0 8.0 0.00 0.00 0.00 44 1008.2
20260509204543 77 325 0.0 10.0 0.00 0.00 0.00 43 1008.0
20260509203047 78 12 2.0 6.0 0.00 0.00 0.00 44 1008.1
20260509201540 77 355 2.0 9.0 0.00 0.00 0.00 45 1008.0
20260509200047 74 324 2.0 8.0 0.00 0.00 0.00 48 1008.0
20260509194543 74 0 2.0 9.0 0.00 0.00 0.00 48 1008.2
20260509193043 76 327 2.0 10.0 0.00 0.00 0.00 47 1008.4
20260509191539 76 51 2.0 10.0 0.00 0.00 0.00 46 1008.5
20260509190042 74 321 3.0 6.0 0.00 0.00 0.00 49 1008.7
20260509184545 75 340 1.0 5.0 0.00 0.00 0.00 54 1009.0
20260509183107 76 259 1.0 9.0 0.00 0.00 0.00 53 1009.4
20260509181600 74 315 3.0 10.0 0.00 0.00 0.00 52 1009.7
20260509180043 72 283 2.0 9.0 0.00 0.00 0.00 54 1009.6
20260509174541 72 315 2.0 9.0 0.00 0.00 0.00 57 1009.7
20260509173044 73 300 2.0 7.0 0.00 0.00 0.00 57 1009.8
20260509171544 72 264 3.0 12.0 0.00 0.00 0.00 56 1010.0
20260509170051 73 286 2.0 8.0 0.00 0.00 0.00 57 1010.0
20260509164546 72 282 3.0 8.0 0.00 0.00 0.00 54 1009.9
20260509163037 70 0 2.0 8.0 0.00 0.00 0.00 61 1010.3
20260509161544 69 326 1.0 5.0 0.00 0.00 0.00 62 1010.6
20260509160048 69 292 1.0 11.0 0.00 0.00 0.00 58 1010.7
20260509154551 71 291 2.0 13.0 0.00 0.00 0.00 59 1010.5
20260509153052 69 338 2.0 8.0 0.00 0.00 0.00 60 1010.8
20260509151546 66 339 1.0 6.0 0.00 0.00 0.00 64 1011.1
20260509150044 63 149 2.0 6.0 0.00 0.00 0.00 67 1011.3
20260509144542 63 44 2.0 6.0 0.00 0.00 0.00 68 1011.3
20260509143044 61 105 3.0 8.0 0.00 0.00 0.00 68 1011.3
20260509141542 60 101 2.0 7.0 0.00 0.00 0.00 69 1011.7
20260509140046 59 317 1.0 4.0 0.00 0.00 0.00 72 1012.0
20260509134541 58 0 0.0 4.0 0.00 0.00 0.00 73 1011.9
20260509133045 57 0 1.0 2.0 0.00 0.00 0.00 73 1012.1
20260509131543 55 13 0.0 2.0 0.00 0.00 0.00 75 1012.0
20260509130042 54 336 1.0 3.0 0.00 0.00 0.00 76 1012.2
20260509124541 54 323 1.0 4.0 0.00 0.00 0.00 76 1012.3
20260509123037 53 0 0.0 3.0 0.00 0.00 0.00 78 1012.3
20260509121542 53 0 0.0 3.0 0.00 0.00 0.00 77 1012.2
20260509120051 52 0 0.0 2.0 0.00 0.00 0.00 79 1012.3
20260509114542 50 0 0.0 0.0 0.00 0.00 0.00 81 1012.3
20260509113038 49 0 0.0 1.0 0.00 0.00 0.00 83 1012.2
20260509111551 48 0 0.0 1.0 0.00 0.00 0.00 83 1012.0
20260509110043 48 0 0.0 1.0 0.00 0.00 0.00 82 1012.2
20260509104545 47 0 0.0 0.0 0.00 0.00 0.00 82 1011.9
20260509103047 46 0 0.0 1.0 0.00 0.00 0.00 83 1012.1
20260509101552 47 0 0.0 1.0 0.00 0.00 0.00 81 1011.9
20260509100039 47 0 0.0 3.0 0.00 0.00 0.00 81 1011.8
20260509094546 46 0 0.0 1.0 0.00 0.00 0.00 83 1011.7
20260509093056 46 0 0.0 1.0 0.00 0.00 0.00 82 1011.9
20260509091544 46 0 0.0 0.0 0.00 0.00 0.00 82 1012.1
20260509090039 46 0 0.0 0.0 0.00 0.00 0.00 82 1012.1
20260509084554 46 0 0.0 1.0 0.00 0.00 0.00 81 1012.1
20260509083048 46 0 0.0 1.0 0.00 0.00 0.00 81 1012.2
20260509081544 46 0 0.0 0.0 0.00 0.00 0.00 81 1012.2
20260509080052 46 0 0.0 0.0 0.00 0.00 0.00 81 1012.3
20260509074545 46 0 0.0 0.0 0.00 0.00 0.00 81 1012.5
20260509073045 46 0 0.0 2.0 0.00 0.00 0.00 80 1012.4
20260509071553 45 0 0.0 0.0 0.00 0.00 0.00 80 1012.6
20260509070046 46 0 0.0 0.0 0.00 0.00 0.00 80 1012.7